Volver al catálogo

STARLINK-31415

ActivoComunicacionesVLEO
NORAD 59419·PAYLOAD·🇺🇸 United States

Lanzado Apr 5, 2024 desde Cape Canaveral Space Force Station

Loading…

Próximos Pases (próximas 24 horas)

TLE

ActualizadoSource: CelesTrak SupGP

Época: Sep 14, 2026, 20:35 UTC

1 59419C 24064X   26257.85812500  .00035997  00000+0  13040-2 0  2574
2 59419  43.0042  68.2589 0001483 273.8414  23.6885 15.27556066    12

Sigue STARLINK-31415 en tiempo real con AllMySat

Download on the App Store